Kincheloe, MI

2:02 PM EDT on September 27, 2016 (GMT -0400)
Chippewa County International

Weather History for KCIU - January, 2012

Change the Weather History Date:

Tuesday, January 24, 2012

  Actual Average Record
Temperature  
Mean Temperature 26 °F -  
Max Temperature 30 °F 26 °F 44 °F (1989)
Min Temperature 21 °F 8 °F -18 °F (2004)
Degree Days  
Heating Degree Days 40    
Moisture  
Dew Point 20 °F    
Average Humidity 87    
Maximum Humidity 100    
Minimum Humidity 74    
Precipitation  
Precipitation 0.00 in - - ()
Sea Level Pressure  
Sea Level Pressure 29.84 in    
Wind  
Wind Speed 15 mph (West)    
Max Wind Speed 24 mph    
Max Gust Speed 30 mph    
Visibility 9 miles    
Events      
Averages and records for this station are not official NWS values.
T = Trace of Precipitation, MM = Missing Value Source: NWS Daily Summary

Daily Weather History Graph

Daily Weather History Graph

Search for Another Location

Airport or City:

Trip Planner

Search our weather history database for the weather conditions in past years. The results will help you decide how hot, cold, wet, or windy it might be!

Date:

Astronomy

Jan. 24, 2012 Rise Set
Actual Time 8:10 AM EST 5:30 PM EST
Civil Twilight 7:37 AM EST 6:03 PM EST
Nautical Twilight 7:00 AM EST 6:39 PM EST
Astronomical Twilight 6:25 AM EST 7:15 PM EST
Moon 8:31 AM EST (1/24) 7:29 PM EST (1/24)
Length of Visible Light 10h 25m
Length of Day
9h 20m
New Moon, 2% of the Moon is Illuminated
Jan 24
New Moon
Jan 30
First Quarter
Feb 7
Full
Feb 14
Last Quarter
Feb 21
New

Hourly Weather History & Observations

Time (EST) Temp. Windchill Dew Point Humidity Pressure Visibility Wind Dir Wind Speed Gust Speed Precip Events Conditions
12:15 AM 30.2 °F 19.8 °F 28.4 °F 93% 29.49 in 5.0 mi West 13.8 mph - N/A   Overcast
12:35 AM 30.2 °F 18.9 °F 28.4 °F 93% 29.51 in 10.0 mi West 16.1 mph 21.9 mph N/A   Overcast
12:55 AM 28.4 °F 16.2 °F 26.6 °F 93% 29.52 in 10.0 mi West 17.3 mph 25.3 mph N/A   Overcast
1:15 AM 28.4 °F 16.2 °F 26.6 °F 93% 29.54 in 10.0 mi West 17.3 mph 21.9 mph N/A   Overcast
1:35 AM 28.4 °F 17.0 °F 24.8 °F 86% 29.55 in 10.0 mi West 15.0 mph - N/A   Overcast
1:55 AM 26.6 °F 16.8 °F 24.8 °F 93% 29.57 in 7.0 mi West 10.4 mph 19.6 mph N/A   Overcast
2:15 AM 26.6 °F 16.2 °F 24.8 °F 93% 29.58 in 3.0 mi West 11.5 mph - N/A   Overcast
2:35 AM 26.6 °F 14.7 °F 24.8 °F 93% 29.60 in 4.0 mi West 15.0 mph 24.2 mph N/A   Overcast
2:55 AM 24.8 °F 12.4 °F 23.0 °F 93% 29.61 in 8.0 mi West 15.0 mph 23.0 mph N/A   Overcast
3:15 AM 24.8 °F 11.9 °F 21.2 °F 86% 29.62 in 7.0 mi WNW 16.1 mph 21.9 mph N/A   Overcast
3:35 AM 24.8 °F 11.1 °F 21.2 °F 86% 29.63 in 10.0 mi West 18.4 mph 26.5 mph N/A   Overcast
3:55 AM 24.8 °F 12.4 °F 21.2 °F 86% 29.64 in 10.0 mi West 15.0 mph 25.3 mph N/A   Overcast
4:15 AM 24.8 °F 12.9 °F 19.4 °F 80% 29.65 in 10.0 mi West 13.8 mph 23.0 mph N/A   Overcast
4:35 AM 24.8 °F 11.9 °F 19.4 °F 80% 29.66 in 10.0 mi West 16.1 mph 24.2 mph N/A   Overcast
4:55 AM 24.8 °F 11.5 °F 19.4 °F 80% 29.67 in 10.0 mi West 17.3 mph 23.0 mph N/A   Overcast
5:15 AM 23.0 °F 13.1 °F 19.4 °F 86% 29.69 in 10.0 mi West 9.2 mph - N/A   Overcast
5:35 AM 23.0 °F 10.6 °F 19.4 °F 86% 29.70 in 10.0 mi West 13.8 mph 21.9 mph N/A   Overcast
5:55 AM 23.0 °F 11.1 °F 19.4 °F 86% 29.71 in 10.0 mi West 12.7 mph 19.6 mph N/A   Overcast
6:15 AM 23.0 °F 11.1 °F 19.4 °F 86% 29.72 in 10.0 mi West 12.7 mph 17.3 mph N/A   Overcast
6:35 AM 23.0 °F 11.1 °F 19.4 °F 86% 29.73 in 10.0 mi West 12.7 mph 19.6 mph N/A   Overcast
6:55 AM 23.0 °F 9.6 °F 19.4 °F 86% 29.74 in 10.0 mi West 16.1 mph 25.3 mph N/A   Overcast
7:15 AM 23.0 °F 11.1 °F 19.4 °F 86% 29.75 in 10.0 mi West 12.7 mph 18.4 mph N/A   Overcast
7:35 AM 21.2 °F 7.3 °F 17.6 °F 86% 29.76 in 10.0 mi West 16.1 mph 25.3 mph N/A   Overcast
7:55 AM 21.2 °F 8.3 °F 17.6 °F 86% 29.77 in 10.0 mi West 13.8 mph 19.6 mph N/A   Overcast
8:15 AM 21.2 °F 8.9 °F 17.6 °F 86% 29.79 in 10.0 mi West 12.7 mph 20.7 mph N/A   Overcast
8:35 AM 21.2 °F 8.3 °F 17.6 °F 86% 29.80 in 10.0 mi West 13.8 mph 20.7 mph N/A   Overcast
8:55 AM 21.2 °F 7.3 °F 17.6 °F 86% 29.81 in 10.0 mi West 16.1 mph 23.0 mph N/A   Overcast
9:15 AM 21.2 °F 8.3 °F 17.6 °F 86% 29.82 in 10.0 mi West 13.8 mph - N/A   Overcast
9:35 AM 21.2 °F 6.8 °F 17.6 °F 86% 29.84 in 10.0 mi West 17.3 mph 24.2 mph N/A   Overcast
9:55 AM 21.2 °F 5.6 °F 17.6 °F 86% 29.85 in 10.0 mi West 20.7 mph 25.3 mph N/A   Overcast
10:15 AM 21.2 °F 7.3 °F 17.6 °F 86% 29.87 in 10.0 mi West 16.1 mph 19.6 mph N/A   Overcast
10:35 AM 21.2 °F 7.3 °F 19.4 °F 93% 29.88 in 6.0 mi West 16.1 mph 21.9 mph N/A   Overcast
10:55 AM 23.0 °F 10.6 °F 19.4 °F 86% 29.90 in 10.0 mi West 13.8 mph 23.0 mph N/A   Overcast
11:15 AM 23.0 °F 8.7 °F 19.4 °F 86% 29.91 in 6.0 mi West 18.4 mph 23.0 mph N/A   Overcast
11:35 AM 23.0 °F 11.1 °F 19.4 °F 86% 29.93 in 3.0 mi West 12.7 mph - N/A   Overcast
11:55 AM 21.2 °F 8.3 °F 19.4 °F 93% 29.93 in 2.5 mi West 13.8 mph - N/A   Overcast
12:15 PM 21.2 °F 11.7 °F 21.2 °F 100% 29.94 in 1.0 mi WNW 8.1 mph - N/A   Overcast
12:35 PM 23.0 °F 10.1 °F 21.2 °F 93% 29.94 in 2.5 mi West 15.0 mph 21.9 mph N/A   Overcast
12:55 PM 23.0 °F 8.0 °F 17.6 °F 80% 29.94 in 10.0 mi West 20.7 mph 28.8 mph N/A   Overcast
1:15 PM 23.0 °F 9.6 °F 17.6 °F 80% 29.95 in 10.0 mi West 16.1 mph 26.5 mph N/A   Overcast
1:35 PM 24.8 °F 9.3 °F 17.6 °F 74% 29.95 in 10.0 mi West 24.2 mph 29.9 mph N/A   Overcast
1:55 PM 24.8 °F 10.7 °F 17.6 °F 74% 29.97 in 10.0 mi West 19.6 mph 27.6 mph N/A   Overcast
2:15 PM 24.8 °F 12.4 °F 17.6 °F 74% 29.98 in 10.0 mi West 15.0 mph 20.7 mph N/A   Overcast
2:35 PM 23.0 °F 10.1 °F 17.6 °F 80% 29.99 in 10.0 mi West 15.0 mph 24.2 mph N/A   Overcast
2:55 PM 23.0 °F 9.2 °F 17.6 °F 80% 30.00 in 10.0 mi West 17.3 mph - N/A   Overcast
3:15 PM 23.0 °F 8.7 °F 17.6 °F 80% 30.01 in 10.0 mi West 18.4 mph - N/A   Overcast
3:35 PM 23.0 °F 11.1 °F 17.6 °F 80% 30.02 in 10.0 mi West 12.7 mph 21.9 mph N/A   Overcast
3:55 PM 23.0 °F 9.2 °F 19.4 °F 86% 30.03 in 9.0 mi West 17.3 mph 23.0 mph N/A   Overcast
4:15 PM 23.0 °F 9.2 °F 19.4 °F 86% 30.04 in 10.0 mi West 17.3 mph 21.9 mph N/A   Overcast
4:35 PM 21.2 °F 7.8 °F 17.6 °F 86% 30.05 in 10.0 mi West 15.0 mph - N/A   Overcast
4:55 PM 21.2 °F 8.9 °F 19.4 °F 93% 30.07 in 9.0 mi West 12.7 mph - N/A   Overcast
5:15 PM 21.2 °F 7.3 °F 19.4 °F 93% 30.08 in 8.0 mi West 16.1 mph - N/A   Overcast
5:35 PM 21.2 °F 9.5 °F 19.4 °F 93% 30.10 in 8.0 mi West 11.5 mph - N/A   Overcast
5:55 PM 21.2 °F 7.8 °F 19.4 °F 93% 30.12 in 8.0 mi West 15.0 mph 19.6 mph N/A   Overcast
6:15 PM 21.2 °F 7.8 °F 19.4 °F 93% 30.13 in 9.0 mi West 15.0 mph - N/A   Overcast
6:35 PM 21.2 °F 10.1 °F 19.4 °F 93% 30.14 in 10.0 mi West 10.4 mph 18.4 mph N/A   Overcast
6:55 PM 21.2 °F 8.3 °F 19.4 °F 93% 30.15 in 10.0 mi West 13.8 mph 19.6 mph N/A   Overcast
7:15 PM 21.2 °F 9.5 °F 19.4 °F 93% 30.16 in 10.0 mi West 11.5 mph - N/A   Overcast
7:35 PM 21.2 °F 8.9 °F 19.4 °F 93% 30.16 in 10.0 mi West 12.7 mph 16.1 mph N/A   Overcast
7:55 PM 21.2 °F 9.5 °F 19.4 °F 93% 30.17 in 10.0 mi WNW 11.5 mph - N/A   Overcast
8:15 PM 21.2 °F 10.1 °F 19.4 °F 93% 30.17 in 10.0 mi WNW 10.4 mph - N/A   Overcast
8:35 PM 21.2 °F 10.9 °F 19.4 °F 93% 30.18 in 10.0 mi WNW 9.2 mph - N/A   Overcast
8:55 PM 21.2 °F 11.7 °F 19.4 °F 93% 30.19 in 10.0 mi West 8.1 mph - N/A   Overcast
9:15 PM 21.2 °F 10.9 °F 19.4 °F 93% 30.19 in 10.0 mi WNW 9.2 mph - N/A   Overcast
9:35 PM 23.0 °F 10.6 °F 19.4 °F 86% 30.20 in 10.0 mi NW 13.8 mph 23.0 mph N/A   Overcast
9:55 PM 21.2 °F 8.3 °F 19.4 °F 93% 30.21 in 10.0 mi WNW 13.8 mph 19.6 mph N/A   Overcast
10:15 PM 21.2 °F 8.3 °F 19.4 °F 93% 30.22 in 10.0 mi WNW 13.8 mph - N/A   Overcast
10:35 PM 21.2 °F 9.5 °F 19.4 °F 93% 30.22 in 10.0 mi NW 11.5 mph - N/A   Overcast
10:55 PM 21.2 °F 10.1 °F 19.4 °F 93% 30.22 in 10.0 mi WNW 10.4 mph - N/A   Overcast
11:15 PM 21.2 °F 11.7 °F 19.4 °F 93% 30.23 in 10.0 mi WNW 8.1 mph - N/A   Overcast
11:35 PM 21.2 °F 11.7 °F 19.4 °F 93% 30.23 in 10.0 mi WNW 8.1 mph - N/A   Overcast
11:55 PM 21.2 °F 10.9 °F 19.4 °F 93% 30.23 in 8.0 mi NW 9.2 mph - N/A   Overcast